Regional Weather Roundup
Issued by NWS Green Bay, WI

Home | Current Version | Previous Version | Text Only | Print | Product List | Glossary On
Versions: 1 2 3 4 5 6 7 8 9 10 11 12 13 14 15 16 17 18 19 20 21 22 23 24 25 26 27 28 29 30 31 32 33 34 35 36 37 38 39 40 41 42 43 44 45 46 47 48 49 50
000
ASUS43 KGRB 231511
RWRGRB

NORTH-CENTRAL AND NORTHEAST WISCONSIN REGIONAL WEATHER ROUNDUP
NATIONAL WEATHER SERVICE GREEN BAY WI
1000 AM CDT SAT JUL 23 2016

WIZ005-009-010>012-018-019-231600-
NORTH CENTRAL WISCONSIN

CITY           SKY/WX    TMP DP  RH WIND       PRES   REMARKS
IRONWOOD       SUNNY     79  63  57 E6        29.96F
MANITOWISH WTR SUNNY     79  62  56 E6        30.00F
ARBOR VITAE    SUNNY     80  59  48 E5        30.00F
EAGLE RIVER    SUNNY     80  55  42 E5        30.01F
LAND O LAKES   SUNNY     81  59  47 E5        30.02F
RHINELANDER    SUNNY     81  60  48 E9        30.00F
PHILLIPS       CLOUDY    80  64  59 E3        29.98F
ANTIGO         SUNNY     80  62  54 CALM      30.01F
TOMAHAWK       SUNNY     80  63  56 NE3       30.00F
MERRILL        SUNNY     82  64  55 E6        29.99F
$$

WIZ013-073-231600-
NORTHEAST WISCONSIN

CITY           SKY/WX    TMP DP  RH WIND       PRES   REMARKS
IRON MOUNTAIN  SUNNY     81  60  48 CALM      30.00F
MARINETTE      SUNNY     81  65  58 SE7       29.99F
OCONTO         SUNNY     81  67  63 E6        29.97F
$$

WIZ017-030-035>037-045-231600-
CENTRAL WISCONSIN

CITY           SKY/WX    TMP DP  RH WIND       PRES   REMARKS
MEDFORD        SUNNY     79  66  63 E7        29.99R
WAUSAU         SUNNY     83  63  50 SE8       29.97F
MOSINEE        SUNNY     81  66  61 E6        30.00F
MARSHFIELD     MOSUNNY   82  69  64 SE9       29.98F
WISC RAPIDS    MOSUNNY   85  67  54 SE8       29.99F
STEVENS POINT  SUNNY     81  65  59 SE6       30.00R
WAUPACA        SUNNY     85  65  51 S3        29.99S
SHAWANO        SUNNY     83  63  51 E6        29.98F
CLINTONVILLE   SUNNY     81  63  54 NE3       29.97F
WAUTOMA        MOSUNNY   83  69  62 E5        30.00R HAZE
$$

WIZ038-039-048-051-231600-
FOX VALLEY

CITY           SKY/WX    TMP DP  RH WIND       PRES   REMARKS
NWS GREEN BAY  SUNNY     81  66  60 NE10      29.98F
APPLETON       MOSUNNY   84  57  39 NE7       29.96F
OSHKOSH          N/A     83  68  60 E6        29.98F
FOND DU LAC    SUNNY     84  70  62 CALM      29.98F
$$

WIZ022-050-052-231600-
EAST CENTRAL WISCONSIN

CITY           SKY/WX    TMP DP  RH WIND       PRES   REMARKS
EPHRAIM        FAIR      76  65  70 N5        29.99S
WASHINGTON ISL NOT AVBL
STURGEON BAY   SUNNY     81  66  60 VRB3      29.99F
MANITOWOC      SUNNY     83  68  60 E8        29.99S
SHEBOYGAN      SUNNY     83  67  58 E6        29.99S
$$

LMZ563-521-522-541>543-231600-
LAKESHORE

STATION/POSITION TIME  TEMP    WIND        PRES    VSBY  WAVE
                       AIR SEA DIR/SP/G                  HT/PER
                 (UTC) (F)     (DEG/KT/KT) (MB)    (MI)  (FT/S)
SHEBOYGAN LKSHOR 1500   72     360/  2/  2 1015.2F
KEWAUNEE LKSHORE 1400   75      40/  1/  2 1015.2R
NORTHPORT PIER   1400   73     330/  7/  9 1015.6R
N MID LAKE BUOY  1450   70 69   10/  4/  6 1015.0R         1
S GREEN BAY BUOY 1430   73 74   40/  6/  8   N/A
CHAMBERS ISLAND  1400   75      20/  2/  2 1015.6S
MENOMINEE LKSHOR 1400   71     350/  4/  4 1014.8S
$$



USA.gov is the U.S. government's official web portal to all federal, state and local government web resources and services.